Weather in Prudki

Russia / Smolensk Oblast     55°10′47″N   33°30′19″E
temp.,
°C
wind,
m/s
gust,
m/s
humid.,
%
clouds,
%
prec.,
mm/h
press.,
hPa
HPBL,
m
16 may, sun
sun1600:00+11ssw4109691 0.0 1008278
03:00+11s3898100 0.0 1009229
06:00+11ssw399798 0.3 1010298
09:00+15ssw588476 1.1 1011615
12:00+18sw466750 0.1 10111271
15:00+20sw345676 0.5 10111614
18:00+19ssw347311 0.9 1012655
21:00+14s228892 1.2 101311
17 may, mon
mon1700:00+13se1191100 0.0 101310
03:00+12se3394100 0.0 101459
06:00+12ese2691100 0.0 1013132
09:00+17se3676100 0.0 1013356
12:00+21ese5859100 0.0 1011949
15:00+24ese69575 0.0 10091547
18:00+23ese6116429 0.1 1007960
21:00+19ese412807 0.2 1007344
18 may, tue
tue1800:00+17ese513826 0.0 1006443
03:00+16ese5128877 0.0 1005351
06:00+16ese41289100 0.0 1004401
09:00+20se61377100 0.0 1004914
12:00+23sse81362100 0.0 10031687
15:00+22sse81463100 0.4 10031787
18:00+19sse71374100 0.6 10031166
21:00+15sse51291100 3.4 1003447
19 may, wed
wed1900:00+14se410965 0.0 1004288
03:00+13se399761 0.0 1004232
06:00+13se389592 0.0 1004251
09:00+17se4880100 0.0 1004614
12:00+19se4771100 0.5 10031108
15:00+20se566966 2.4 10021339
18:00+18se3682100 1.9 1001593
21:00+15sw4793100 5.2 1002231
20 may, thu
thu2000:00+13s2397100 0.1 1001105
03:00+12ssw51095100 2.4 1000604
06:00+11s499462 0.1 1000459
09:00+13sse5686100 0.1 1000728
12:00+12s358899 0.7 1001587
15:00+9w71291100 1.5 1005909
18:00+8w71688100 0.3 10091377
21:00+8wsw499329 0.4 1012381